TimeEDT,TemperatureF,Dew PointF,Humidity,Sea Level PressureIn,VisibilityMPH,Wind Direction,Wind SpeedMPH,Gust SpeedMPH,PrecipitationIn,Events,Conditions,WindDirDegrees,DateUTC
12:58 AM,51.6,51.3,99,29.86,10.0,Calm,Calm,-,N/A,,Clear,0,2013-06-15 04:58:00
1:58 AM,50.9,50.7,99,29.86,10.0,Calm,Calm,-,N/A,,Clear,0,2013-06-15 05:58:00
2:14 AM,50.0,50.0,100,29.85,2.5,Calm,Calm,-,N/A,,Clear,0,2013-06-15 06:14:00
2:15 AM,51.8,50.0,94,29.85,1.2,Calm,Calm,-,N/A,,Clear,0,2013-06-15 06:15:00
2:16 AM,51.8,50.0,94,29.85,1.0,Calm,Calm,-,N/A,,Clear,0,2013-06-15 06:16:00
2:17 AM,50.0,50.0,100,29.85,0.8,Calm,Calm,-,N/A,,Clear,0,2013-06-15 06:17:00
2:18 AM,50.0,50.0,100,29.85,0.8,Calm,Calm,-,N/A,,Clear,0,2013-06-15 06:18:00
2:22 AM,50.0,50.0,100,29.85,0.8,SW,1.2,-,N/A,,Clear,220,2013-06-15 06:22:00
2:23 AM,50.0,50.0,100,29.85,1.0,SW,1.2,-,N/A,,Clear,230,2013-06-15 06:23:00
2:24 AM,50.0,50.0,100,29.85,1.0,Variable,1.2,-,N/A,,Clear,0,2013-06-15 06:24:00
2:25 AM,50.0,50.0,100,29.85,1.5,Variable,1.2,-,N/A,,Clear,0,2013-06-15 06:25:00
2:26 AM,50.0,50.0,100,29.85,3.0,Calm,Calm,-,N/A,,Clear,0,2013-06-15 06:26:00
2:58 AM,49.5,49.3,99,29.88,4.0,Calm,Calm,-,N/A,,Clear,0,2013-06-15 06:58:00
3:04 AM,48.2,48.2,100,29.86,2.5,Calm,Calm,-,N/A,,Clear,0,2013-06-15 07:04:00
3:07 AM,50.0,48.2,94,29.86,3.0,Calm,Calm,-,N/A,,Clear,0,2013-06-15 07:07:00
3:58 AM,48.4,48.2,99,29.89,6.0,Calm,Calm,-,N/A,,Clear,0,2013-06-15 07:58:00
4:58 AM,46.6,46.4,99,29.90,8.0,Calm,Calm,-,N/A,,Clear,0,2013-06-15 08:58:00
5:09 AM,46.4,46.4,100,29.89,2.0,Calm,Calm,-,N/A,,Clear,0,2013-06-15 09:09:00
5:10 AM,46.4,46.4,100,29.89,1.2,Calm,Calm,-,N/A,,Clear,0,2013-06-15 09:10:00
5:11 AM,46.4,46.4,100,29.89,0.8,Calm,Calm,-,N/A,,Clear,0,2013-06-15 09:11:00
5:12 AM,46.4,46.4,100,29.89,0.5,Calm,Calm,-,N/A,Fog,Fog,0,2013-06-15 09:12:00
5:20 AM,46.4,46.4,100,29.89,0.8,SSE,1.2,-,N/A,,Clear,150,2013-06-15 09:20:00
5:21 AM,46.4,46.4,100,29.89,1.0,SE,1.2,-,N/A,,Clear,140,2013-06-15 09:21:00
5:22 AM,48.2,46.4,93,29.89,1.8,Calm,Calm,-,N/A,,Clear,0,2013-06-15 09:22:00
5:23 AM,48.2,46.4,93,29.89,3.0,Variable,1.2,-,N/A,,Clear,0,2013-06-15 09:23:00
5:26 AM,46.4,46.4,100,29.90,2.5,Calm,Calm,-,N/A,,Clear,0,2013-06-15 09:26:00
5:27 AM,46.4,46.4,100,29.90,2.0,Calm,Calm,-,N/A,,Clear,0,2013-06-15 09:27:00
5:34 AM,48.2,46.4,93,29.90,2.5,Calm,Calm,-,N/A,,Clear,0,2013-06-15 09:34:00
5:36 AM,48.2,46.4,93,29.90,3.0,North,-9999.0,-,N/A,,Clear,0,2013-06-15 09:36:00
5:58 AM,46.0,45.7,99,29.92,7.0,East,2.3,-,N/A,,Clear,90,2013-06-15 09:58:00
6:58 AM,53.2,53.1,99,29.94,10.0,Calm,Calm,-,N/A,,Clear,0,2013-06-15 10:58:00
7:35 AM,59.0,55.4,88,29.93,10.0,ENE,1.2,-,N/A,,Clear,70,2013-06-15 11:35:00
7:39 AM,59.0,55.4,88,29.93,10.0,East,1.2,-,N/A,,Clear,80,2013-06-15 11:39:00
7:57 AM,60.8,55.4,82,29.96,10.0,East,2.3,-,N/A,,Scattered Clouds,80,2013-06-15 11:57:00
8:58 AM,66.6,51.1,57,29.97,10.0,NNE,8.1,-,N/A,,Clear,20,2013-06-15 12:58:00
9:58 AM,68.9,49.3,50,29.98,10.0,NNE,8.1,-,N/A,,Clear,20,2013-06-15 13:58:00
10:51 AM,71.6,48.2,43,29.95,10.0,NNE,3.5,-,N/A,,Light Drizzle,30,2013-06-15 14:51:00
10:54 AM,71.6,48.2,43,29.95,10.0,Variable,4.6,-,N/A,,Clear,0,2013-06-15 14:54:00
10:58 AM,70.9,47.5,43,29.97,10.0,Variable,2.3,-,0.00,,Clear,0,2013-06-15 14:58:00
11:58 AM,73.6,48.2,41,29.96,10.0,Variable,6.9,-,N/A,,Clear,0,2013-06-15 15:58:00
12:58 PM,76.1,43.0,31,29.95,10.0,WNW,6.9,-,N/A,,Clear,290,2013-06-15 16:58:00
1:58 PM,77.5,46.0,33,29.94,10.0,WNW,6.9,-,N/A,,Clear,300,2013-06-15 17:58:00
2:58 PM,78.3,44.8,30,29.93,10.0,WNW,15.0,18.4,N/A,,Clear,290,2013-06-15 18:58:00
3:58 PM,78.4,43.5,29,29.93,10.0,NW,11.5,-,N/A,,Clear,320,2013-06-15 19:58:00
4:58 PM,78.1,43.0,29,29.92,10.0,NW,10.4,-,N/A,,Clear,310,2013-06-15 20:58:00
5:58 PM,77.5,41.4,27,29.91,10.0,NW,8.1,-,N/A,,Clear,320,2013-06-15 21:58:00
6:58 PM,75.9,40.8,28,29.92,10.0,NW,8.1,-,N/A,,Clear,310,2013-06-15 22:58:00
7:58 PM,71.2,46.6,41,29.93,10.0,NW,5.8,-,N/A,,Clear,320,2013-06-15 23:58:00
8:58 PM,66.4,47.3,50,29.95,10.0,WSW,1.2,-,N/A,,Clear,250,2013-06-16 00:58:00
9:58 PM,59.4,50.4,72,29.96,10.0,WSW,2.3,-,N/A,,Clear,250,2013-06-16 01:58:00
10:58 PM,56.1,51.6,85,29.97,10.0,West,4.6,-,N/A,,Clear,280,2013-06-16 02:58:00
11:58 PM,54.7,51.6,89,29.98,10.0,SSW,1.2,-,N/A,,Clear,200,2013-06-16 03:58:00